Tracking 29892 objects as of 21-Nov-2024
HD Live streaming from Space Station
objects crossing your sky now

THORAD AGENA D DEB

Track THORAD AGENA D DEB now!
10-day predictions


NORAD ID: 4854
Int'l Code: 1970-025EJ
Perigee: 1,042.7 km
Apogee: 1,067.5 km
Inclination: 99.4 °
Period: 106.1 minutes
Semi major axis: 7426 km
RCS: 0.0366 m2 (small)
Launch date: April 8, 1970
Source: United States (US)
Launch site: AIR FORCE WESTERN TEST RANGE (AFWTR)

Note: This is SATELLITE DEBRIS
Your satellite tracking list
Your tracking list is empty




NASA's NSSDC Master Catalog

Two Line Element Set (TLE):
1 04854U 70025EJ  24324.52213382  .00000395  00000-0  61745-3 0  9999
2 04854  99.3976 175.7403 0016730 195.0952 226.3634 13.56634179694371
Source of the keplerian elements: AFSPC